ONEWEB-0313, 49099

Orbit data source: Space-Track

ONEWEB-0313, 49099 is a payload satellite owned by One Web (NAA) (UK) in LEO that was launched on Sat, 21 Aug 2021 UTC via a SOYUZ-2-1B launch vehicle from the Tyuratam Missile And Space Complex (TTMTR). Payload-class satellites include a variety of spacecraft equipped with specific instruments for various scientific and technological missions. These include communications satellites like Starlink; space stations such as the ISS; scientific satellites like the Hubble; Earth observation satellites from companies like Planet Labs, Umbra, and HawkEye 360; GPS; miniature CubeSats for education and research; and military/defense satellites.

Loading next visibility...
Identifier
49099, 2021-075AA
Orbit
LEO
Country
Flag of UKUK
Related business
Manufacturer
One Web
Mission
Operational Commercial Communications
Bus & Motor
ARROW, Unknown motor
Mass
148 kg wet, ~140 kg dry
Launch date (UTC)
2021-08-21 (5 years ago)
Launch vehicle
SOYUZ-2-1B
Launch site
Tyuratam Missile And Space Complex (TTMTR)
Object type
Payload
Rocket body
Debris
Shape & HBR
Trap Box + 2 Pan, 6.7 m
Radar Cross Section
3.464 m², Large (>1 m²)

Expand to show TLE details & history
Last TLE update: 1 day ago

TLE from 1 day ago
0 ONEWEB-0313
1 49099U 21075AA  26175.25389325  .00000013  00000-0  12911-5 0  9997
2 49099  87.9127   4.4727 0001972  86.8895 273.2463 13.17648189234525
Epoch: 2026-06-24T06:05Z
TLE epoch observation values (Epoch: 2026-06-24T06:05:36.376Z)
Latitude
0.00005°
Longitude
0.65738°
Altitude
1,196.531 km
Speed
7.256 km/s
True Right ascension
00h 17m 53s
True Declination
0° 00' 00"
Sunlit
Object was in daylight at epoch
Visualization orbit readout
Latitude
Unknown
Longitude
Unknown
Altitude
Unknown
Speed
Unknown
Apparent Right ascension
Unknown
Apparent Declination
Unknown
Sunlit
N/A
Visualization observer readout
Local Sidereal Time
17:12:33
Azimuth
Unknown
Elevation
Unknown
Doppler factor
Unknown
Orbital elements
Apogee altitude
1,192.318 km
Perigee altitude
1,189.333 km
Semi-major axis
7,568.962 km
Eccentricity
0.0002
Inclination
87.9127°
RAAN
4.4727°
Arg. of periapsis
86.8895°
True anomaly
273.22374°
Mean anomaly
273.2463°
Eccentric anomaly
273.23502°
Mean motion
3.29601 °/min
Orbital period
109.22 mins
BSTAR
0.0000012911
Loading maneuver chart data...
Computing Atmospheric mass density...
Loading historical data...
Loading historical data...
Loading historical data...
Loading historical data...
Loading historical data...
Loading historical data...
Loading historical data...

Documentation

Showing up to 5 results
|